Location: CCZU
(31.6840°N, 119.9550°E)
Time: 03:19:59
(UTC+08:00)

Envisat - Visible Passes

Search period start: 16 October 2019 00:00
Search period end: 26 October 2019 00:00
Orbit: 764 x 766 km, 98.1° (Epoch: 15 October)

Date Brightness Start Highest point End Pass type
(mag) Time Alt. Az. Time Alt. Az. Time Alt. Az.
16 Oct 3.1 17:55:19 10° SSE 18:00:16 58° ENE 18:05:15 10° N visible
16 Oct 6.2 19:37:38 10° WSW 19:39:33 12° W 19:41:29 10° WNW visible
17 Oct 4.9 18:58:08 10° SSW 19:02:33 30° W 19:07:00 10° NW visible
18 Oct 6.7 05:35:19 10° ENE 05:37:08 12° E 05:38:58 10° ESE visible
18 Oct 3.2 18:20:39 10° S 18:25:43 76° WSW 18:30:48 10° NNW visible
19 Oct 3.3 17:44:16 10° SE 17:49:03 44° ENE 17:53:51 10° N visible
19 Oct 5.9 19:25:07 10° SW 19:28:12 16° W 19:31:18 10° NW visible
20 Oct 4.4 18:46:31 10° SSW 18:51:15 39° W 18:56:00 10° NNW visible
21 Oct 2.9 18:09:24 10° SSE 18:14:28 83° ENE 18:19:33 10° N visible
22 Oct 5.5 19:13:05 10° SW 19:16:51 21° W 19:20:40 10° NW visible
23 Oct 3.9 18:35:03 10° S 18:39:58 52° W 18:44:55 10° NNW visible
24 Oct 3.0 17:58:13 10° SSE 18:03:13 64° ENE 18:08:15 10° N visible
24 Oct 6.3 19:41:29 10° WSW 19:42:34 11° W 19:43:39 10° W visible
25 Oct 5.1 19:01:16 10° SSW 19:05:32 27° W 19:09:50 10° NW visible
